Weather History for Louisville Bowman, KY

Change the Weather History Date:

Saturday, June 29, 2013

  Actual Average Record
Temperature  
Mean Temperature 74 °F 78 °F  
Max Temperature 82 °F 87 °F 105 °F (2012)
Min Temperature 65 °F 68 °F 54 °F (1961)
Degree Days  
Heating Degree Days 0 0  
Month to date heating degree days 0 2  
Since 1 June heating degree days 0 2  
Since 1 July heating degree days 4329 4267  
Cooling Degree Days 9 13  
Month to date cooling degree days 290 293  
Year to date cooling degree days 476 440  
Since 1 June cooling degree days 290 293  
Growing Degree Days 24 (Base 50)    
Moisture  
Dew Point 62 °F    
Average Humidity 72    
Maximum Humidity 93    
Minimum Humidity 51    
Precipitation  
Precipitation 0.52 in 0.13 in 0.86 in (2006)
Month to date precipitation 8.49 4.03  
Year to date precipitation 27.22 23.95  
Sea Level Pressure  
Sea Level Pressure 29.63 in    
Wind  
Wind Speed 5 mph (WSW)    
Max Wind Speed 17 mph    
Max Gust Speed 24 mph    
Visibility 9 miles    
Events Fog , Rain , Thunderstorm    
T = Trace of Precipitation, MM = Missing Value Source: NWS Daily Summary

Daily Weather History Graph

Daily Weather History Graph

Search for Another Location

Airport:

Trip Planner

Search our weather history database for the weather conditions in past years. The results will help you decide how hot, cold, wet, or windy it might be!

Date:

Astronomy

Jun. 29, 2013 Rise Set
Actual Time 6:22 AM EDT 9:09 PM EDT
Civil Twilight 5:50 AM EDT 9:41 PM EDT
Nautical Twilight 5:11 AM EDT 10:20 PM EDT
Astronomical Twilight 4:26 AM EDT 11:05 PM EDT
Moon 12:44 AM EDT (6/29) 1:26 PM EDT (6/29)
Length of Visible Light 15h 50m
Length of Day
14h 47m
Waning Gibbous, 56% of the Moon is Illuminated
Jun 29
Waning Gibbous
Jun 30
Last Quarter
Jul 8
New
Jul 15
First Quarter
Jul 22
Full

Hourly Weather History & Observations

Time (EDT) Temp. Heat Index Dew Point Humidity Pressure Visibility Wind Dir Wind Speed Gust Speed Precip Events Conditions
12:53 AM 73.9 °F - 59.0 °F 59% 29.65 in 10.0 mi North 10.4 mph - N/A   Clear
1:53 AM 72.0 °F - 60.1 °F 66% 29.63 in 10.0 mi NW 4.6 mph - N/A   Clear
2:53 AM 72.0 °F - 60.1 °F 66% 29.62 in 10.0 mi Calm Calm - N/A   Mostly Cloudy
3:53 AM 72.0 °F - 61.0 °F 68% 29.60 in 10.0 mi Calm Calm - N/A   Mostly Cloudy
4:53 AM 69.1 °F - 60.1 °F 73% 29.61 in 10.0 mi SW 3.5 mph - N/A   Clear
5:53 AM 69.1 °F - 60.1 °F 73% 29.62 in 10.0 mi Calm Calm - N/A   Clear
6:53 AM 68.0 °F - 61.0 °F 78% 29.64 in 10.0 mi WSW 3.5 mph - N/A   Partly Cloudy
7:53 AM 71.1 °F - 61.0 °F 70% 29.63 in 10.0 mi SW 4.6 mph - N/A   Clear
8:53 AM 73.9 °F - 62.1 °F 66% 29.63 in 10.0 mi WSW 6.9 mph - N/A   Clear
9:53 AM 77.0 °F - 62.1 °F 60% 29.63 in 10.0 mi West 5.8 mph - N/A   Clear
10:53 AM 78.1 °F - 62.1 °F 58% 29.63 in 10.0 mi WNW 8.1 mph - N/A   Overcast
11:53 AM 77.0 °F - 62.1 °F 60% 29.63 in 10.0 mi SW 5.8 mph - N/A   Mostly Cloudy
12:53 PM 79.0 °F - 61.0 °F 54% 29.62 in 10.0 mi West 6.9 mph - N/A   Mostly Cloudy
1:53 PM 80.1 °F 81.7 °F 64.0 °F 58% 29.62 in 10.0 mi SW 10.4 mph - N/A   Mostly Cloudy
2:53 PM 80.1 °F 81.1 °F 61.0 °F 52% 29.60 in 10.0 mi SW 9.2 mph - N/A   Mostly Cloudy
3:53 PM 80.1 °F 81.2 °F 62.1 °F 54% 29.60 in 10.0 mi WSW 12.7 mph 17.3 mph N/A   Mostly Cloudy
4:53 PM 78.1 °F - 64.0 °F 62% 29.60 in 10.0 mi WSW 4.6 mph - 0.00 in   Mostly Cloudy
5:53 PM 81.0 °F 82.2 °F 63.0 °F 54% 29.59 in 10.0 mi SW 13.8 mph 19.6 mph N/A   Partly Cloudy
6:53 PM 73.9 °F - 63.0 °F 68% 29.60 in 10.0 mi North 9.2 mph 19.6 mph N/A Thunderstorm Mostly Cloudy
7:15 PM 71.6 °F - 62.6 °F 73% 29.64 in 10.0 mi North 9.2 mph 18.4 mph N/A Thunderstorm Overcast
7:53 PM 71.1 °F - 63.0 °F 75% 29.64 in 10.0 mi NE 4.6 mph - N/A Thunderstorm Partly Cloudy
8:51 PM 68.0 °F - 64.4 °F 88% 29.67 in 1.2 mi SW 5.8 mph - 0.19 in Rain , Thunderstorm Heavy Thunderstorms and Rain
8:53 PM 66.9 °F - 64.9 °F 93% 29.65 in 0.5 mi Calm Calm - 0.31 in Fog , Rain , Thunderstorm Heavy Thunderstorms and Rain
9:06 PM 66.2 °F - 64.4 °F 94% 29.66 in 3.0 mi WSW 4.6 mph - 0.07 in Rain , Thunderstorm Light Thunderstorms and Rain
9:53 PM 66.9 °F - 64.0 °F 90% 29.66 in 3.0 mi Calm Calm - 0.12 in Rain , Thunderstorm Rain
10:19 PM 66.2 °F - 64.4 °F 94% 29.68 in 5.0 mi South 3.5 mph - 0.06 in Rain Rain
10:53 PM 66.0 °F - 64.0 °F 93% 29.66 in 10.0 mi South 4.6 mph - 0.09 in Rain Light Rain
11:53 PM 64.9 °F - 63.0 °F 93% 29.67 in 10.0 mi WSW 3.5 mph - 0.00 in   Clear